Time,TemperatureF,DewpointF,PressureIn,WindDirection,WindDirectionDegrees,WindSpeedMPH,WindSpeedGustMPH,Humidity,HourlyPrecipIn,Conditions,Clouds,dailyrainin,SoftwareType,DateUTC
2013-01-23 00:00:00,18.5,0.6,30.28,SE,135,0.9,3.8,45,0.00,,,0.00,WUHU216HW,2013-01-23 05:00:00,
2013-01-23 00:01:00,18.5,0.6,30.28,SE,135,0.9,3.4,45,0.00,,,0.00,WUHU216HW,2013-01-23 05:01:00,
2013-01-23 00:02:00,18.5,0.6,30.28,SE,135,1.6,3.4,45,0.00,,,0.00,WUHU216HW,2013-01-23 05:02:00,
2013-01-23 00:07:00,18.4,0.5,30.28,ESE,113,0.2,1.6,45,0.00,,,0.00,WUHU216HW,2013-01-23 05:07:00,
2013-01-23 00:12:00,18.2,0.3,30.28,ESE,113,1.8,1.8,45,0.00,,,0.00,WUHU216HW,2013-01-23 05:12:00,
2013-01-23 00:17:00,18.2,0.3,30.28,ESE,113,0.4,1.8,45,0.00,,,0.00,WUHU216HW,2013-01-23 05:17:00,
2013-01-23 00:22:00,18.0,0.2,30.28,ESE,113,0.9,0.9,45,0.00,,,0.00,WUHU216HW,2013-01-23 05:22:00,
2013-01-23 00:27:00,17.8,0.0,30.27,SE,135,0.2,0.9,45,0.00,,,0.00,WUHU216HW,2013-01-23 05:27:00,
2013-01-23 00:32:00,17.8,0.0,30.28,SW,225,0.4,1.3,45,0.00,,,0.00,WUHU216HW,2013-01-23 05:32:00,
2013-01-23 00:37:00,17.8,0.0,30.28,East,90,1.1,1.3,45,0.00,,,0.00,WUHU216HW,2013-01-23 05:37:00,
2013-01-23 00:43:00,17.6,0.3,30.28,SE,135,0.7,1.1,46,0.00,,,0.00,WUHU216HW,2013-01-23 05:43:00,
2013-01-23 00:48:00,17.6,0.3,30.28,South,180,0.2,0.9,46,0.00,,,0.00,WUHU216HW,2013-01-23 05:48:00,
2013-01-23 00:53:00,17.6,0.3,30.28,SW,225,0.2,0.9,46,0.00,,,0.00,WUHU216HW,2013-01-23 05:53:00,
2013-01-23 00:58:00,17.6,0.3,30.27,SSE,158,1.1,1.1,46,0.00,,,0.00,WUHU216HW,2013-01-23 05:58:00,
2013-01-23 01:03:00,17.6,0.7,30.27,SSE,158,0.4,1.8,47,0.00,,,0.00,WUHU216HW,2013-01-23 06:03:00,
2013-01-23 01:08:00,17.6,0.7,30.28,SW,225,1.3,1.8,47,0.00,,,0.00,WUHU216HW,2013-01-23 06:08:00,
2013-01-23 01:13:00,17.6,0.7,30.28,SW,225,1.3,1.3,47,0.00,,,0.00,WUHU216HW,2013-01-23 06:13:00,
2013-01-23 01:38:00,17.8,1.4,30.28,South,180,0.0,0.0,48,0.00,,,0.00,WUHU216HW,2013-01-23 06:38:00,
2013-01-23 01:43:00,17.6,1.3,30.28,SSW,203,1.8,1.8,48,0.00,,,0.00,WUHU216HW,2013-01-23 06:43:00,
2013-01-23 01:48:00,17.5,1.1,30.28,ESE,113,0.4,1.8,48,0.00,,,0.00,WUHU216HW,2013-01-23 06:48:00,
2013-01-23 01:53:00,17.5,1.5,30.28,WSW,248,0.2,0.9,49,0.00,,,0.00,WUHU216HW,2013-01-23 06:53:00,
2013-01-23 01:58:00,17.5,1.5,30.28,WSW,248,0.2,0.9,49,0.00,,,0.00,WUHU216HW,2013-01-23 06:58:00,
2013-01-23 02:03:00,17.3,1.4,30.28,SE,135,0.2,0.4,49,0.00,,,0.00,WUHU216HW,2013-01-23 07:03:00,
2013-01-23 02:08:00,17.1,1.2,30.28,SE,135,0.7,0.7,49,0.00,,,0.00,WUHU216HW,2013-01-23 07:08:00,
2013-01-23 02:13:00,16.9,1.1,30.28,NE,45,0.4,1.1,49,0.00,,,0.00,WUHU216HW,2013-01-23 07:13:00,
2013-01-23 02:18:00,16.9,1.1,30.29,East,90,0.4,1.1,49,0.00,,,0.00,WUHU216HW,2013-01-23 07:18:00,
2013-01-23 02:24:00,16.7,0.9,30.29,ESE,113,0.0,0.4,49,0.00,,,0.00,WUHU216HW,2013-01-23 07:24:00,
2013-01-23 02:29:00,16.6,0.7,30.29,SSW,203,0.0,0.0,49,0.00,,,0.00,WUHU216HW,2013-01-23 07:29:00,
2013-01-23 02:34:00,16.6,1.2,30.29,SSE,158,0.0,0.7,50,0.00,,,0.00,WUHU216HW,2013-01-23 07:34:00,
2013-01-23 02:39:00,16.4,1.0,30.29,SSE,158,0.0,0.7,50,0.00,,,0.00,WUHU216HW,2013-01-23 07:39:00,
2013-01-23 02:44:00,16.4,1.0,30.29,ESE,113,0.7,1.1,50,0.00,,,0.00,WUHU216HW,2013-01-23 07:44:00,
2013-01-23 02:49:00,16.4,1.0,30.29,ESE,113,0.7,1.1,50,0.00,,,0.00,WUHU216HW,2013-01-23 07:49:00,
2013-01-23 03:00:00,16.9,1.9,30.29,SW,225,0.0,0.0,51,0.00,,,0.00,WUHU216HW,2013-01-23 08:00:00,
2013-01-23 03:05:00,16.9,1.9,30.29,ESE,113,0.0,0.4,51,0.00,,,0.00,WUHU216HW,2013-01-23 08:05:00,
2013-01-23 03:10:00,16.9,1.9,30.29,SSW,203,0.2,1.8,51,0.00,,,0.00,WUHU216HW,2013-01-23 08:10:00,
2013-01-23 03:15:00,16.9,1.9,30.29,ESE,113,0.0,1.8,51,0.00,,,0.00,WUHU216HW,2013-01-23 08:15:00,
2013-01-23 03:20:00,16.7,1.7,30.29,ESE,113,0.0,0.4,51,0.00,,,0.00,WUHU216HW,2013-01-23 08:20:00,
2013-01-23 03:25:00,16.4,1.5,30.29,ESE,113,0.0,0.2,51,0.00,,,0.00,WUHU216HW,2013-01-23 08:25:00,
2013-01-23 03:30:00,16.2,1.3,30.29,SW,225,0.0,0.0,51,0.00,,,0.00,WUHU216HW,2013-01-23 08:30:00,
2013-01-23 03:35:00,16.2,1.3,30.29,SW,225,0.0,0.0,51,0.00,,,0.00,WUHU216HW,2013-01-23 08:35:00,
2013-01-23 03:40:00,15.8,0.9,30.29,SSW,203,0.0,0.4,51,0.00,,,0.00,WUHU216HW,2013-01-23 08:40:00,
2013-01-23 03:45:00,15.7,0.7,30.28,SSW,203,0.0,0.4,51,0.00,,,0.00,WUHU216HW,2013-01-23 08:45:00,
2013-01-23 03:50:00,15.5,0.5,30.28,SW,225,0.0,0.0,51,0.00,,,0.00,WUHU216HW,2013-01-23 08:50:00,
2013-01-23 03:55:00,15.3,0.4,30.28,SW,225,0.0,0.0,51,0.00,,,0.00,WUHU216HW,2013-01-23 08:55:00,
2013-01-23 04:00:00,15.1,0.2,30.28,SW,225,0.0,0.0,51,0.00,,,0.00,WUHU216HW,2013-01-23 09:00:00,
2013-01-23 04:06:00,14.9,0.0,30.28,SE,135,0.4,0.7,51,0.00,,,0.00,WUHU216HW,2013-01-23 09:06:00,
2013-01-23 04:11:00,15.1,0.6,30.28,South,180,0.0,0.7,52,0.00,,,0.00,WUHU216HW,2013-01-23 09:11:00,
2013-01-23 04:16:00,15.1,0.6,30.29,SSE,158,0.0,0.0,52,0.00,,,0.00,WUHU216HW,2013-01-23 09:16:00,
2013-01-23 04:21:00,14.9,0.5,30.29,SE,135,0.2,0.2,52,0.00,,,0.00,WUHU216HW,2013-01-23 09:21:00,
2013-01-23 04:26:00,15.1,1.0,30.29,SE,135,0.0,0.2,53,0.00,,,0.00,WUHU216HW,2013-01-23 09:26:00,
2013-01-23 04:32:00,15.1,0.6,30.29,SE,135,0.0,0.2,52,0.00,,,0.00,WUHU216HW,2013-01-23 09:32:00,
2013-01-23 04:37:00,15.1,0.6,30.29,ESE,113,0.0,0.2,52,0.00,,,0.00,WUHU216HW,2013-01-23 09:37:00,
2013-01-23 04:42:00,15.1,0.6,30.29,SE,135,0.0,0.4,52,0.00,,,0.00,WUHU216HW,2013-01-23 09:42:00,
2013-01-23 04:47:00,14.9,0.5,30.29,SE,135,0.0,0.4,52,0.00,,,0.00,WUHU216HW,2013-01-23 09:47:00,
2013-01-23 04:52:00,14.8,0.6,30.29,SE,135,0.0,0.4,53,0.00,,,0.00,WUHU216HW,2013-01-23 09:52:00,
2013-01-23 04:57:00,14.9,0.8,30.29,SE,135,0.0,1.1,53,0.00,,,0.00,WUHU216HW,2013-01-23 09:57:00,
2013-01-23 05:02:00,14.9,0.8,30.29,ESE,113,0.0,1.1,53,0.00,,,0.00,WUHU216HW,2013-01-23 10:02:00,
2013-01-23 05:07:00,15.1,1.0,30.29,ESE,113,0.0,0.4,53,0.00,,,0.00,WUHU216HW,2013-01-23 10:07:00,
2013-01-23 05:12:00,14.9,0.8,30.29,SSE,158,0.0,1.3,53,0.00,,,0.00,WUHU216HW,2013-01-23 10:12:00,
2013-01-23 05:17:00,15.1,1.4,30.29,East,90,0.4,1.3,54,0.00,,,0.00,WUHU216HW,2013-01-23 10:17:00,
2013-01-23 05:22:00,15.1,1.4,30.29,SSE,158,0.0,0.9,54,0.00,,,0.00,WUHU216HW,2013-01-23 10:22:00,
2013-01-23 05:27:00,15.1,1.4,30.30,SE,135,0.4,0.9,54,0.00,,,0.00,WUHU216HW,2013-01-23 10:27:00,
2013-01-23 05:32:00,15.1,1.4,30.30,SSE,158,0.4,0.9,54,0.00,,,0.00,WUHU216HW,2013-01-23 10:32:00,
2013-01-23 05:37:00,14.9,1.2,30.30,SE,135,0.4,0.7,54,0.00,,,0.00,WUHU216HW,2013-01-23 10:37:00,
2013-01-23 05:43:00,14.9,1.2,30.30,SE,135,0.0,0.7,54,0.00,,,0.00,WUHU216HW,2013-01-23 10:43:00,
2013-01-23 05:48:00,14.8,1.0,30.30,SE,135,0.0,0.2,54,0.00,,,0.00,WUHU216HW,2013-01-23 10:48:00,
2013-01-23 05:53:00,14.8,1.0,30.30,SE,135,0.4,0.4,54,0.00,,,0.00,WUHU216HW,2013-01-23 10:53:00,
2013-01-23 05:58:00,14.8,1.5,30.30,SE,135,0.0,0.9,55,0.00,,,0.00,WUHU216HW,2013-01-23 10:58:00,
2013-01-23 06:03:00,14.8,1.0,30.30,SE,135,0.0,1.1,54,0.00,,,0.00,WUHU216HW,2013-01-23 11:03:00,
2013-01-23 06:08:00,14.8,1.0,30.30,SSE,158,0.0,1.1,54,0.00,,,0.00,WUHU216HW,2013-01-23 11:08:00,
2013-01-23 06:13:00,14.6,1.3,30.30,East,90,0.0,0.4,55,0.00,,,0.00,WUHU216HW,2013-01-23 11:13:00,
2013-01-23 06:18:00,14.6,1.3,30.30,ESE,113,0.0,1.1,55,0.00,,,0.00,WUHU216HW,2013-01-23 11:18:00,
2013-01-23 06:23:00,14.8,1.5,30.30,SSE,158,0.0,1.1,55,0.00,,,0.00,WUHU216HW,2013-01-23 11:23:00,
2013-01-23 06:28:00,14.8,1.5,30.30,East,90,0.2,0.4,55,0.00,,,0.00,WUHU216HW,2013-01-23 11:28:00,
2013-01-23 06:34:00,14.8,1.5,30.30,ESE,113,0.2,0.4,55,0.00,,,0.00,WUHU216HW,2013-01-23 11:34:00,
2013-01-23 06:39:00,14.8,1.5,30.30,SSE,158,0.0,0.4,55,0.00,,,0.00,WUHU216HW,2013-01-23 11:39:00,
2013-01-23 06:44:00,14.6,1.6,30.30,WSW,248,0.4,0.9,56,0.00,,,0.00,WUHU216HW,2013-01-23 11:44:00,
2013-01-23 06:49:00,14.8,1.8,30.30,ENE,68,0.0,0.9,56,0.00,,,0.00,WUHU216HW,2013-01-23 11:49:00,
2013-01-23 06:54:00,14.8,1.8,30.30,SE,135,0.0,0.4,56,0.00,,,0.00,WUHU216HW,2013-01-23 11:54:00,
2013-01-23 06:59:00,14.6,1.6,30.30,WSW,248,0.0,0.2,56,0.00,,,0.00,WUHU216HW,2013-01-23 11:59:00,
2013-01-23 07:04:00,14.6,1.6,30.30,SW,225,0.0,0.2,56,0.00,,,0.00,WUHU216HW,2013-01-23 12:04:00,
2013-01-23 07:09:00,14.4,1.4,30.31,SW,225,0.0,0.0,56,0.00,,,0.00,WUHU216HW,2013-01-23 12:09:00,
2013-01-23 07:14:00,14.0,1.1,30.31,SSW,203,0.0,0.0,56,0.00,,,0.00,WUHU216HW,2013-01-23 12:14:00,
2013-01-23 07:19:00,14.0,1.1,30.31,ESE,113,0.0,0.2,56,0.00,,,0.00,WUHU216HW,2013-01-23 12:19:00,
2013-01-23 07:24:00,14.0,1.5,30.32,SE,135,0.0,0.2,57,0.00,,,0.00,WUHU216HW,2013-01-23 12:24:00,
2013-01-23 07:29:00,14.4,1.9,30.32,SW,225,0.0,0.2,57,0.00,,,0.00,WUHU216HW,2013-01-23 12:29:00,
2013-01-23 07:34:00,14.4,1.9,30.32,SE,135,0.0,0.0,57,0.00,,,0.00,WUHU216HW,2013-01-23 12:34:00,
2013-01-23 07:39:00,14.6,2.0,30.32,WSW,248,0.0,0.0,57,0.00,,,0.00,WUHU216HW,2013-01-23 12:39:00,
2013-01-23 07:44:00,14.8,2.2,30.32,NW,315,0.0,0.4,57,0.00,,,0.00,WUHU216HW,2013-01-23 12:44:00,
2013-01-23 07:49:00,14.8,2.6,30.32,West,270,0.0,0.4,58,0.00,,,0.00,WUHU216HW,2013-01-23 12:49:00,
2013-01-23 07:55:00,14.8,2.6,30.32,SE,135,0.0,0.4,58,0.00,,,0.00,WUHU216HW,2013-01-23 12:55:00,
2013-01-23 08:00:00,15.1,2.9,30.32,SE,135,0.0,0.4,58,0.00,,,0.00,WUHU216HW,2013-01-23 13:00:00,
2013-01-23 08:05:00,15.5,3.3,30.32,SSE,158,0.4,0.7,58,0.00,,,0.00,WUHU216HW,2013-01-23 13:05:00,
2013-01-23 08:10:00,16.0,3.8,30.32,SE,135,0.0,1.8,58,0.00,,,0.00,WUHU216HW,2013-01-23 13:10:00,
2013-01-23 08:15:00,16.2,4.0,30.32,East,90,0.4,1.8,58,0.00,,,0.00,WUHU216HW,2013-01-23 13:15:00,
2013-01-23 08:20:00,16.6,3.9,30.32,SE,135,0.4,0.7,57,0.00,,,0.00,WUHU216HW,2013-01-23 13:20:00,
2013-01-23 08:25:00,16.7,4.1,30.33,SSW,203,0.2,1.8,57,0.00,,,0.00,WUHU216HW,2013-01-23 13:25:00,
2013-01-23 08:30:00,16.9,4.2,30.32,ESE,113,0.4,1.8,57,0.00,,,0.00,WUHU216HW,2013-01-23 13:30:00,
2013-01-23 08:35:00,17.3,4.2,30.32,SE,135,0.4,2.5,56,0.00,,,0.00,WUHU216HW,2013-01-23 13:35:00,
2013-01-23 08:40:00,17.6,4.5,30.32,South,180,0.4,2.5,56,0.00,,,0.00,WUHU216HW,2013-01-23 13:40:00,
2013-01-23 08:45:00,17.8,3.9,30.32,SW,225,1.8,2.2,54,0.00,,,0.00,WUHU216HW,2013-01-23 13:45:00,
2013-01-23 08:50:00,18.0,4.1,30.32,ESE,113,1.6,2.2,54,0.00,,,0.00,WUHU216HW,2013-01-23 13:50:00,
2013-01-23 08:55:00,18.2,3.9,30.32,SE,135,1.6,1.8,53,0.00,,,0.00,WUHU216HW,2013-01-23 13:55:00,
2013-01-23 09:00:00,18.4,4.0,30.33,SE,135,0.7,1.8,53,0.00,,,0.00,WUHU216HW,2013-01-23 14:00:00,
2013-01-23 09:05:00,18.5,4.1,30.33,SSW,203,0.9,3.6,53,0.00,,,0.00,WUHU216HW,2013-01-23 14:05:00,
2013-01-23 09:10:00,18.7,4.0,30.33,SSE,158,2.5,3.6,52,0.00,,,0.00,WUHU216HW,2013-01-23 14:10:00,
2013-01-23 09:15:00,19.1,4.2,30.33,SSE,158,0.2,2.5,52,0.00,,,0.00,WUHU216HW,2013-01-23 14:15:00,
2013-01-23 09:20:00,19.3,4.4,30.33,SE,135,0.7,4.3,52,0.00,,,0.00,WUHU216HW,2013-01-23 14:20:00,
2013-01-23 09:25:00,19.6,4.8,30.33,SSE,158,2.5,4.3,52,0.00,,,0.00,WUHU216HW,2013-01-23 14:25:00,
2013-01-23 09:30:00,19.8,4.5,30.33,ENE,68,1.1,2.5,51,0.00,,,0.00,WUHU216HW,2013-01-23 14:30:00,
2013-01-23 09:35:00,19.8,4.5,30.33,SE,135,1.1,1.6,51,0.00,,,0.00,WUHU216HW,2013-01-23 14:35:00,
2013-01-23 09:40:00,20.2,4.9,30.33,SSE,158,0.4,1.6,51,0.00,,,0.00,WUHU216HW,2013-01-23 14:40:00,
2013-01-23 09:45:00,20.3,4.6,30.33,SE,135,1.3,3.4,50,0.00,,,0.00,WUHU216HW,2013-01-23 14:45:00,
2013-01-23 09:51:00,20.5,4.8,30.33,WSW,248,1.6,3.4,50,0.00,,,0.00,WUHU216HW,2013-01-23 14:51:00,
2013-01-23 09:56:00,20.7,4.4,30.33,ENE,68,0.7,2.5,49,0.00,,,0.00,WUHU216HW,2013-01-23 14:56:00,
2013-01-23 10:01:00,20.9,4.6,30.33,SE,135,0.2,2.5,49,0.00,,,0.00,WUHU216HW,2013-01-23 15:01:00,
2013-01-23 10:06:00,21.2,4.5,30.33,West,270,1.8,1.8,48,0.00,,,0.00,WUHU216HW,2013-01-23 15:06:00,
2013-01-23 10:11:00,21.2,4.5,30.33,SSE,158,1.3,1.8,48,0.00,,,0.00,WUHU216HW,2013-01-23 15:11:00,
2013-01-23 10:16:00,21.6,4.9,30.33,SE,135,0.4,1.8,48,0.00,,,0.00,WUHU216HW,2013-01-23 15:16:00,
2013-01-23 10:21:00,21.6,3.9,30.33,East,90,2.2,2.2,46,0.00,,,0.00,WUHU216HW,2013-01-23 15:21:00,
2013-01-23 10:26:00,21.6,4.3,30.33,SSW,203,1.8,2.2,47,0.00,,,0.00,WUHU216HW,2013-01-23 15:26:00,
2013-01-23 10:31:00,21.8,4.1,30.33,ESE,113,2.0,4.7,46,0.00,,,0.00,WUHU216HW,2013-01-23 15:31:00,
2013-01-23 10:36:00,22.1,4.4,30.32,SSW,203,1.6,4.7,46,0.00,,,0.00,WUHU216HW,2013-01-23 15:36:00,
2013-01-23 10:42:00,22.5,4.8,30.32,ENE,68,1.6,2.2,46,0.00,,,0.00,WUHU216HW,2013-01-23 15:42:00,
2013-01-23 10:47:00,22.7,4.4,30.32,ESE,113,1.6,2.5,45,0.00,,,0.00,WUHU216HW,2013-01-23 15:47:00,
2013-01-23 10:52:00,22.7,4.4,30.32,ESE,113,0.9,2.5,45,0.00,,,0.00,WUHU216HW,2013-01-23 15:52:00,
2013-01-23 10:57:00,23.2,5.0,30.31,ENE,68,1.8,3.4,45,0.00,,,0.00,WUHU216HW,2013-01-23 15:57:00,
2013-01-23 11:02:00,23.4,4.6,30.31,SE,135,1.1,3.4,44,0.00,,,0.00,WUHU216HW,2013-01-23 16:02:00,
2013-01-23 11:07:00,23.4,4.6,30.31,NNE,23,4.7,4.7,44,0.00,,,0.00,WUHU216HW,2013-01-23 16:07:00,
2013-01-23 11:12:00,23.6,4.8,30.31,NE,45,2.2,4.7,44,0.00,,,0.00,WUHU216HW,2013-01-23 16:12:00,
2013-01-23 11:17:00,24.1,5.2,30.31,ENE,68,2.7,4.7,44,0.00,,,0.00,WUHU216HW,2013-01-23 16:17:00,
2013-01-23 11:22:00,24.3,5.4,30.31,West,270,1.3,4.7,44,0.00,,,0.00,WUHU216HW,2013-01-23 16:22:00,
2013-01-23 11:27:00,24.5,5.6,30.30,ENE,68,1.3,3.4,44,0.00,,,0.00,WUHU216HW,2013-01-23 16:27:00,
2013-01-23 11:32:00,24.5,5.6,30.30,South,180,0.9,6.5,44,0.00,,,0.00,WUHU216HW,2013-01-23 16:32:00,
2013-01-23 11:37:00,24.7,5.8,30.29,East,90,2.0,6.5,44,0.00,,,0.00,WUHU216HW,2013-01-23 16:37:00,
2013-01-23 11:42:00,24.7,5.2,30.29,SSE,158,0.4,5.6,43,0.00,,,0.00,WUHU216HW,2013-01-23 16:42:00,
2013-01-23 11:47:00,24.8,5.4,30.28,NNW,338,3.4,3.4,43,0.00,,,0.00,WUHU216HW,2013-01-23 16:47:00,
2013-01-23 11:52:00,24.8,5.0,30.28,ESE,113,2.9,6.3,42,0.00,,,0.00,WUHU216HW,2013-01-23 16:52:00,
2013-01-23 11:57:00,24.8,5.0,30.27,ESE,113,1.3,6.3,42,0.00,,,0.00,WUHU216HW,2013-01-23 16:57:00,
2013-01-23 12:02:00,24.8,5.4,30.27,NNW,338,0.7,2.2,43,0.00,,,0.00,WUHU216HW,2013-01-23 17:02:00,
2013-01-23 12:07:00,25.4,5.4,30.26,ENE,68,6.0,7.2,42,0.00,,,0.00,WUHU216HW,2013-01-23 17:07:00,
2013-01-23 12:12:00,25.4,5.4,30.26,ENE,68,2.5,9.8,42,0.00,,,0.00,WUHU216HW,2013-01-23 17:12:00,
2013-01-23 12:17:00,25.4,5.4,30.25,NNE,23,6.5,9.8,42,0.00,,,0.00,WUHU216HW,2013-01-23 17:17:00,
2013-01-23 12:22:00,25.7,5.8,30.25,NNW,338,5.8,6.5,42,0.00,,,0.00,WUHU216HW,2013-01-23 17:22:00,
2013-01-23 12:27:00,25.6,5.6,30.24,ENE,68,4.0,6.7,42,0.00,,,0.00,WUHU216HW,2013-01-23 17:27:00,
2013-01-23 12:32:00,25.4,5.4,30.24,NE,45,4.7,6.7,42,0.00,,,0.00,WUHU216HW,2013-01-23 17:32:00,
2013-01-23 12:37:00,25.0,5.1,30.24,North,0,0.7,5.8,42,0.00,,,0.00,WUHU216HW,2013-01-23 17:37:00,
2013-01-23 12:42:00,25.0,5.1,30.23,NNW,338,1.3,7.4,42,0.00,,,0.00,WUHU216HW,2013-01-23 17:42:00,
2013-01-23 12:47:00,25.4,5.0,30.23,NE,45,1.8,7.4,41,0.00,,,0.00,WUHU216HW,2013-01-23 17:47:00,
2013-01-23 12:52:00,25.7,5.2,30.23,NNE,23,6.3,6.3,41,0.00,,,0.00,WUHU216HW,2013-01-23 17:52:00,
2013-01-23 12:57:00,26.1,5.6,30.23,ESE,113,1.3,6.3,41,0.00,,,0.00,WUHU216HW,2013-01-23 17:57:00,
2013-01-23 13:02:00,26.5,6.0,30.23,WNW,293,2.0,2.5,41,0.00,,,0.00,WUHU216HW,2013-01-23 18:02:00,
2013-01-23 13:07:00,27.0,6.4,30.23,SE,135,3.6,3.6,41,0.00,,,0.00,WUHU216HW,2013-01-23 18:07:00,
2013-01-23 13:13:00,27.4,5.6,30.23,ESE,113,1.6,3.6,39,0.00,,,0.00,WUHU216HW,2013-01-23 18:13:00,
2013-01-23 13:18:00,27.4,5.6,30.23,SSE,158,0.2,3.6,39,0.00,,,0.00,WUHU216HW,2013-01-23 18:18:00,
2013-01-23 13:23:00,27.9,6.8,30.22,SSW,203,0.9,3.6,40,0.00,,,0.00,WUHU216HW,2013-01-23 18:23:00,
2013-01-23 13:28:00,28.3,6.4,30.22,SE,135,0.4,1.1,39,0.00,,,0.00,WUHU216HW,2013-01-23 18:28:00,
2013-01-23 13:33:00,28.1,6.2,30.22,SE,135,0.4,2.2,39,0.00,,,0.00,WUHU216HW,2013-01-23 18:33:00,
2013-01-23 13:38:00,28.1,6.2,30.21,North,0,0.4,2.2,39,0.00,,,0.00,WUHU216HW,2013-01-23 18:38:00,
2013-01-23 13:43:00,28.4,6.6,30.21,ENE,68,1.8,4.0,39,0.00,,,0.00,WUHU216HW,2013-01-23 18:43:00,
2013-01-23 13:48:00,28.1,5.6,30.21,ENE,68,1.1,4.3,38,0.00,,,0.00,WUHU216HW,2013-01-23 18:48:00,
2013-01-23 13:53:00,28.1,6.2,30.21,ENE,68,1.1,4.3,39,0.00,,,0.00,WUHU216HW,2013-01-23 18:53:00,
2013-01-23 13:58:00,28.3,5.8,30.21,East,90,3.6,5.6,38,0.00,,,0.00,WUHU216HW,2013-01-23 18:58:00,
2013-01-23 14:03:00,28.1,5.0,30.21,ENE,68,1.6,5.6,37,0.00,,,0.00,WUHU216HW,2013-01-23 19:03:00,
2013-01-23 14:08:00,28.1,5.0,30.21,East,90,1.1,3.4,37,0.00,,,0.00,WUHU216HW,2013-01-23 19:08:00,
2013-01-23 14:13:00,28.1,5.0,30.21,ENE,68,4.9,6.3,37,0.00,,,0.00,WUHU216HW,2013-01-23 19:13:00,
2013-01-23 14:18:00,27.9,4.9,30.21,NNW,338,3.6,6.3,37,0.00,,,0.00,WUHU216HW,2013-01-23 19:18:00,
2013-01-23 14:23:00,27.9,5.5,30.21,SE,135,0.2,6.3,38,0.00,,,0.00,WUHU216HW,2013-01-23 19:23:00,
2013-01-23 14:28:00,28.1,5.6,30.21,ESE,113,1.1,4.0,38,0.00,,,0.00,WUHU216HW,2013-01-23 19:28:00,
2013-01-23 14:33:00,28.3,5.8,30.20,WNW,293,1.6,1.8,38,0.00,,,0.00,WUHU216HW,2013-01-23 19:33:00,
2013-01-23 14:38:00,28.3,5.8,30.20,South,180,0.9,4.0,38,0.00,,,0.00,WUHU216HW,2013-01-23 19:38:00,
2013-01-23 14:43:00,28.3,5.8,30.21,NNE,23,3.8,4.0,38,0.00,,,0.00,WUHU216HW,2013-01-23 19:43:00,
2013-01-23 14:48:00,28.4,5.9,30.20,ESE,113,0.9,3.8,38,0.00,,,0.00,WUHU216HW,2013-01-23 19:48:00,
2013-01-23 14:53:00,28.4,5.9,30.20,ESE,113,0.2,2.5,38,0.00,,,0.00,WUHU216HW,2013-01-23 19:53:00,
2013-01-23 14:58:00,28.3,5.8,30.20,NNE,23,3.4,3.8,38,0.00,,,0.00,WUHU216HW,2013-01-23 19:58:00,
2013-01-23 15:03:00,28.4,5.9,30.20,NE,45,3.1,3.8,38,0.00,,,0.00,WUHU216HW,2013-01-23 20:03:00,
2013-01-23 15:08:00,28.3,5.1,30.20,SE,135,2.2,4.3,37,0.00,,,0.00,WUHU216HW,2013-01-23 20:08:00,
2013-01-23 15:13:00,28.1,5.6,30.20,NNE,23,9.6,9.6,38,0.00,,,0.00,WUHU216HW,2013-01-23 20:13:00,
2013-01-23 15:18:00,27.9,5.5,30.20,NNE,23,0.2,9.6,38,0.00,,,0.00,WUHU216HW,2013-01-23 20:18:00,
2013-01-23 15:23:00,27.9,5.5,30.20,NNE,23,4.9,6.3,38,0.00,,,0.00,WUHU216HW,2013-01-23 20:23:00,
2013-01-23 15:28:00,27.7,5.3,30.20,NNE,23,2.5,6.3,38,0.00,,,0.00,WUHU216HW,2013-01-23 20:28:00,
2013-01-23 15:33:00,27.7,5.3,30.20,East,90,2.5,4.5,38,0.00,,,0.00,WUHU216HW,2013-01-23 20:33:00,
2013-01-23 15:38:00,27.9,5.5,30.20,ENE,68,0.2,4.0,38,0.00,,,0.00,WUHU216HW,2013-01-23 20:38:00,
2013-01-23 15:43:00,27.7,4.7,30.20,ESE,113,0.9,4.0,37,0.00,,,0.00,WUHU216HW,2013-01-23 20:43:00,
2013-01-23 15:48:00,27.7,5.3,30.20,ESE,113,2.9,2.9,38,0.00,,,0.00,WUHU216HW,2013-01-23 20:48:00,
2013-01-23 15:53:00,27.5,4.5,30.19,ESE,113,0.9,2.9,37,0.00,,,0.00,WUHU216HW,2013-01-23 20:53:00,
2013-01-23 15:58:00,27.2,4.1,30.19,NE,45,0.9,2.0,37,0.00,,,0.00,WUHU216HW,2013-01-23 20:58:00,
2013-01-23 16:04:00,27.0,4.7,30.19,ESE,113,0.9,2.0,38,0.00,,,0.00,WUHU216HW,2013-01-23 21:04:00,
2013-01-23 16:09:00,27.0,4.1,30.19,South,180,0.7,1.8,37,0.00,,,0.00,WUHU216HW,2013-01-23 21:09:00,
2013-01-23 16:57:00,26.1,3.9,30.19,SE,135,0.0,0.0,38,0.00,,,0.00,WUHU216HW,2013-01-23 21:57:00,
2013-01-23 17:02:00,25.9,3.7,30.18,SE,135,1.1,1.1,38,0.00,,,0.00,WUHU216HW,2013-01-23 22:02:00,
2013-01-23 17:07:00,25.7,3.5,30.18,ESE,113,0.0,1.1,38,0.00,,,0.00,WUHU216HW,2013-01-23 22:07:00,
2013-01-23 17:12:00,25.7,3.5,30.18,ESE,113,0.0,1.1,38,0.00,,,0.00,WUHU216HW,2013-01-23 22:12:00,
2013-01-23 17:17:00,25.9,3.7,30.18,NE,45,0.7,1.1,38,0.00,,,0.00,WUHU216HW,2013-01-23 22:17:00,
2013-01-23 17:22:00,25.9,3.7,30.18,ESE,113,0.0,2.0,38,0.00,,,0.00,WUHU216HW,2013-01-23 22:22:00,
2013-01-23 17:27:00,26.1,3.9,30.18,NE,45,2.0,2.0,38,0.00,,,0.00,WUHU216HW,2013-01-23 22:27:00,
2013-01-23 17:32:00,26.1,3.9,30.18,SE,135,0.0,2.0,38,0.00,,,0.00,WUHU216HW,2013-01-23 22:32:00,
2013-01-23 17:37:00,26.1,3.9,30.18,SE,135,0.0,0.9,38,0.00,,,0.00,WUHU216HW,2013-01-23 22:37:00,
2013-01-23 17:43:00,26.1,3.9,30.18,NNE,23,0.4,3.1,38,0.00,,,0.00,WUHU216HW,2013-01-23 22:43:00,
2013-01-23 17:48:00,26.1,3.9,30.18,NNE,23,0.0,3.1,38,0.00,,,0.00,WUHU216HW,2013-01-23 22:48:00,
2013-01-23 17:53:00,26.1,3.9,30.18,East,90,0.9,2.5,38,0.00,,,0.00,WUHU216HW,2013-01-23 22:53:00,
2013-01-23 17:58:00,25.9,3.7,30.18,SE,135,0.9,2.5,38,0.00,,,0.00,WUHU216HW,2013-01-23 22:58:00,
2013-01-23 18:03:00,26.1,3.9,30.18,NE,45,0.0,1.8,38,0.00,,,0.00,WUHU216HW,2013-01-23 23:03:00,
2013-01-23 18:08:00,26.1,3.9,30.18,East,90,0.4,1.8,38,0.00,,,0.00,WUHU216HW,2013-01-23 23:08:00,
2013-01-23 18:13:00,26.1,3.9,30.18,SE,135,0.0,1.1,38,0.00,,,0.00,WUHU216HW,2013-01-23 23:13:00,
2013-01-23 18:18:00,26.3,4.0,30.18,ENE,68,0.0,0.4,38,0.00,,,0.00,WUHU216HW,2013-01-23 23:18:00,
2013-01-23 18:23:00,26.1,3.9,30.18,ENE,68,0.0,0.4,38,0.00,,,0.00,WUHU216HW,2013-01-23 23:23:00,
2013-01-23 18:28:00,26.1,3.9,30.18,ENE,68,0.0,0.0,38,0.00,,,0.00,WUHU216HW,2013-01-23 23:28:00,
2013-01-23 18:33:00,26.1,3.9,30.18,ENE,68,0.0,0.2,38,0.00,,,0.00,WUHU216HW,2013-01-23 23:33:00,
2013-01-23 18:38:00,26.1,3.9,30.18,ENE,68,0.0,0.2,38,0.00,,,0.00,WUHU216HW,2013-01-23 23:38:00,
2013-01-23 18:43:00,26.1,3.9,30.17,SW,225,0.4,0.7,38,0.00,,,0.00,WUHU216HW,2013-01-23 23:43:00,
2013-01-23 18:48:00,26.1,3.9,30.17,East,90,0.0,0.7,38,0.00,,,0.00,WUHU216HW,2013-01-23 23:48:00,
2013-01-23 18:53:00,26.1,3.9,30.17,East,90,0.0,0.7,38,0.00,,,0.00,WUHU216HW,2013-01-23 23:53:00,
2013-01-23 18:58:00,26.1,3.9,30.17,SSW,203,0.4,0.4,38,0.00,,,0.00,WUHU216HW,2013-01-23 23:58:00,
2013-01-23 19:03:00,26.1,3.9,30.17,SE,135,0.0,0.7,38,0.00,,,0.00,WUHU216HW,2013-01-24 00:03:00,
2013-01-23 19:08:00,25.9,4.3,30.17,North,0,0.0,0.7,39,0.00,,,0.00,WUHU216HW,2013-01-24 00:08:00,
2013-01-23 19:13:00,25.9,3.7,30.17,WSW,248,0.7,0.7,38,0.00,,,0.00,WUHU216HW,2013-01-24 00:13:00,
2013-01-23 19:18:00,25.9,3.7,30.16,WSW,248,0.7,0.7,38,0.00,,,0.00,WUHU216HW,2013-01-24 00:18:00,
2013-01-23 19:23:00,25.9,3.7,30.16,SW,225,0.0,0.7,38,0.00,,,0.00,WUHU216HW,2013-01-24 00:23:00,
2013-01-23 19:28:00,25.9,4.3,30.16,WSW,248,0.0,0.4,39,0.00,,,0.00,WUHU216HW,2013-01-24 00:28:00,
2013-01-23 19:33:00,25.9,4.3,30.16,WSW,248,1.1,1.1,39,0.00,,,0.00,WUHU216HW,2013-01-24 00:33:00,
2013-01-23 19:38:00,25.9,3.7,30.16,WSW,248,0.0,1.1,38,0.00,,,0.00,WUHU216HW,2013-01-24 00:38:00,
2013-01-23 19:43:00,25.9,4.3,30.15,SW,225,0.7,0.7,39,0.00,,,0.00,WUHU216HW,2013-01-24 00:43:00,
2013-01-23 19:49:00,25.9,4.3,30.15,South,180,0.4,0.7,39,0.00,,,0.00,WUHU216HW,2013-01-24 00:49:00,
2013-01-23 19:54:00,25.9,4.3,30.15,SW,225,0.0,0.4,39,0.00,,,0.00,WUHU216HW,2013-01-24 00:54:00,
2013-01-23 19:59:00,25.9,4.3,30.15,SSE,158,0.4,1.1,39,0.00,,,0.00,WUHU216HW,2013-01-24 00:59:00,
2013-01-23 20:04:00,25.9,4.3,30.15,SSE,158,0.0,1.1,39,0.00,,,0.00,WUHU216HW,2013-01-24 01:04:00,
2013-01-23 20:09:00,25.9,4.3,30.15,ESE,113,0.2,0.4,39,0.00,,,0.00,WUHU216HW,2013-01-24 01:09:00,
2013-01-23 20:14:00,25.9,4.3,30.16,SSE,158,0.0,0.4,39,0.00,,,0.00,WUHU216HW,2013-01-24 01:14:00,
2013-01-23 20:19:00,25.7,4.1,30.15,SSW,203,0.0,0.7,39,0.00,,,0.00,WUHU216HW,2013-01-24 01:19:00,
2013-01-23 20:24:00,25.7,4.1,30.15,WSW,248,0.0,0.7,39,0.00,,,0.00,WUHU216HW,2013-01-24 01:24:00,
2013-01-23 20:29:00,25.7,4.1,30.16,SSW,203,0.4,0.7,39,0.00,,,0.00,WUHU216HW,2013-01-24 01:29:00,
2013-01-23 20:34:00,25.7,4.1,30.15,SSW,203,0.0,0.7,39,0.00,,,0.00,WUHU216HW,2013-01-24 01:34:00,
2013-01-23 20:39:00,25.7,4.1,30.16,SE,135,0.0,0.4,39,0.00,,,0.00,WUHU216HW,2013-01-24 01:39:00,
2013-01-23 20:44:00,25.6,4.0,30.16,SE,135,0.0,0.4,39,0.00,,,0.00,WUHU216HW,2013-01-24 01:44:00,
2013-01-23 20:49:00,25.6,4.6,30.16,SE,135,0.0,0.4,40,0.00,,,0.00,WUHU216HW,2013-01-24 01:49:00,
2013-01-23 20:54:00,25.6,4.6,30.15,SSW,203,0.2,0.4,40,0.00,,,0.00,WUHU216HW,2013-01-24 01:54:00,
2013-01-23 20:59:00,25.6,4.6,30.15,SE,135,0.2,0.4,40,0.00,,,0.00,WUHU216HW,2013-01-24 01:59:00,
2013-01-23 21:04:00,25.6,4.6,30.15,SW,225,0.0,0.7,40,0.00,,,0.00,WUHU216HW,2013-01-24 02:04:00,
2013-01-23 21:09:00,25.6,4.6,30.15,SSW,203,0.0,0.7,40,0.00,,,0.00,WUHU216HW,2013-01-24 02:09:00,
2013-01-23 21:14:00,25.6,4.6,30.15,SSW,203,0.0,0.2,40,0.00,,,0.00,WUHU216HW,2013-01-24 02:14:00,
2013-01-23 21:19:00,25.6,4.6,30.15,WSW,248,0.0,0.2,40,0.00,,,0.00,WUHU216HW,2013-01-24 02:19:00,
2013-01-23 21:25:00,25.6,5.1,30.16,ESE,113,0.0,0.9,41,0.00,,,0.00,WUHU216HW,2013-01-24 02:25:00,
2013-01-23 21:30:00,25.6,5.1,30.16,South,180,0.0,0.9,41,0.00,,,0.00,WUHU216HW,2013-01-24 02:30:00,
2013-01-23 21:35:00,25.6,5.1,30.15,SSW,203,0.7,0.7,41,0.00,,,0.00,WUHU216HW,2013-01-24 02:35:00,
2013-01-23 21:40:00,25.6,5.1,30.15,South,180,0.0,0.7,41,0.00,,,0.00,WUHU216HW,2013-01-24 02:40:00,
2013-01-23 21:45:00,25.6,5.1,30.15,South,180,0.0,0.4,41,0.00,,,0.00,WUHU216HW,2013-01-24 02:45:00,
2013-01-23 22:00:00,25.6,5.1,30.16,NNE,23,0.4,0.4,41,0.00,,,0.00,WUHU216HW,2013-01-24 03:00:00,
2013-01-23 22:05:00,25.6,5.1,30.16,NNE,23,0.0,0.4,41,0.00,,,0.00,WUHU216HW,2013-01-24 03:05:00,
2013-01-23 22:10:00,25.6,5.6,30.15,West,270,0.0,0.4,42,0.00,,,0.00,WUHU216HW,2013-01-24 03:10:00,
2013-01-23 22:15:00,25.6,5.6,30.15,SW,225,0.4,0.7,42,0.00,,,0.00,WUHU216HW,2013-01-24 03:15:00,
2013-01-23 22:20:00,25.6,6.6,30.16,WSW,248,1.8,1.8,44,0.00,,,0.00,WUHU216HW,2013-01-24 03:20:00,
2013-01-23 22:25:00,25.4,6.8,30.16,SW,225,0.4,2.2,45,0.00,,,0.00,WUHU216HW,2013-01-24 03:25:00,
2013-01-23 22:30:00,25.2,6.8,30.15,West,270,0.0,2.2,45,0.00,,,0.00,WUHU216HW,2013-01-24 03:30:00,
2013-01-23 22:35:00,25.0,6.6,30.15,SE,135,0.0,0.4,45,0.00,,,0.00,WUHU216HW,2013-01-24 03:35:00,
2013-01-23 22:40:00,24.8,6.8,30.15,SE,135,0.0,0.4,46,0.00,,,0.00,WUHU216HW,2013-01-24 03:40:00,
2013-01-23 22:45:00,24.8,7.4,30.15,NW,315,0.0,0.7,47,0.00,,,0.00,WUHU216HW,2013-01-24 03:45:00,
2013-01-23 22:50:00,24.8,7.4,30.15,ESE,113,0.0,0.7,47,0.00,,,0.00,WUHU216HW,2013-01-24 03:50:00,
2013-01-23 22:55:00,24.8,7.4,30.15,West,270,0.0,0.7,47,0.00,,,0.00,WUHU216HW,2013-01-24 03:55:00,
2013-01-23 23:00:00,24.7,7.7,30.15,SSW,203,0.4,1.1,48,0.00,,,0.00,WUHU216HW,2013-01-24 04:00:00,
2013-01-23 23:05:00,24.5,7.6,30.15,West,270,0.0,1.3,48,0.00,,,0.00,WUHU216HW,2013-01-24 04:05:00,
2013-01-23 23:10:00,24.5,8.0,30.14,SE,135,0.2,1.3,49,0.00,,,0.00,WUHU216HW,2013-01-24 04:10:00,
2013-01-23 23:15:00,24.3,7.8,30.14,SSW,203,0.0,0.4,49,0.00,,,0.00,WUHU216HW,2013-01-24 04:15:00,
2013-01-23 23:20:00,24.1,9.0,30.14,SE,135,0.0,0.9,52,0.00,,,0.00,WUHU216HW,2013-01-24 04:20:00,
2013-01-23 23:25:00,23.9,8.8,30.14,SSW,203,0.0,0.9,52,0.00,,,0.00,WUHU216HW,2013-01-24 04:25:00,
2013-01-23 23:30:00,23.8,8.6,30.14,SE,135,0.0,0.7,52,0.00,,,0.00,WUHU216HW,2013-01-24 04:30:00,
2013-01-23 23:36:00,23.6,8.5,30.14,ESE,113,0.0,0.4,52,0.00,,,0.00,WUHU216HW,2013-01-24 04:36:00,
2013-01-23 23:41:00,23.6,8.9,30.13,ESE,113,0.0,0.0,53,0.00,,,0.00,WUHU216HW,2013-01-24 04:41:00,
2013-01-23 23:46:00,23.4,9.1,30.13,ESE,113,0.0,0.0,54,0.00,,,0.00,WUHU216HW,2013-01-24 04:46:00,
2013-01-23 23:51:00,23.4,9.1,30.13,ESE,113,0.0,0.0,54,0.00,,,0.00,WUHU216HW,2013-01-24 04:51:00,
2013-01-23 23:56:00,23.4,10.7,30.13,North,0,0.0,0.4,58,0.00,,,0.00,WUHU216HW,2013-01-24 04:56:00,